Zurück zum Katalog

STARLINK-36289

AktivKommunikationVLEO
NORAD 67827·PAYLOAD·🇺🇸 United States

Gestartet Feb 16, 2026 von Vandenberg Space Force Base

Loading…

Nächste Überflüge (nächste 24 Stunden)

TLE

AktuellSource: CelesTrak SupGP

Epoche: Sep 15, 2026, 03:00 UTC

1 67827C 26033G   26258.12548611 -.00002914  00000+0 -10552-3 0  2586
2 67827  42.9999 277.5794 0001366 263.1572  27.6829 15.27583378    11

Verfolge STARLINK-36289 in Echtzeit mit AllMySat

Download on the App Store